Nome, AK

5:07 PM AKDT on March 26, 2017 (GMT -0800)
Nome

Weather History for PAOM - March, 2013

Change the Weather History Date:

Thursday, March 21, 2013

  Actual Average Record
Temperature  
Mean Temperature -4 °F 11 °F  
Max Temperature 5 °F 19 °F 39 °F (1981)
Min Temperature -13 °F 2 °F -43 °F (1975)
Degree Days  
Heating Degree Days 69 55  
Month to date heating degree days 1094 1162  
Since 1 July heating degree days 10635 10441  
Cooling Degree Days 0 0  
Month to date cooling degree days 0 0  
Year to date cooling degree days 0 0  
Moisture  
Dew Point -11 °F    
Average Humidity 0    
Maximum Humidity 0    
Minimum Humidity 0    
Precipitation  
Precipitation 0.00 in 0.02 in 0.33 in (1935)
Month to date precipitation 0.58 0.45  
Year to date precipitation 2.10 2.32  
Snow  
Snow 0.00 in 0.20 in 3.70 in (1935)
Month to date snowfall 8.1 6.3  
Since 1 July snowfall 49.4 63.0  
Snow Depth 29.00 in    
Sea Level Pressure  
Sea Level Pressure 30.05 in    
Wind  
Wind Speed 4 mph (North)    
Max Wind Speed 14 mph    
Max Gust Speed 15 mph    
Visibility 10 miles    
Events      
T = Trace of Precipitation, MM = Missing Value Source: NWS Daily Summary

Daily Weather History Graph

Daily Weather History Graph

Search for Another Location

Airport or City:

Trip Planner

Search our weather history database for the weather conditions in past years. The results will help you decide how hot, cold, wet, or windy it might be!

Date:

Astronomy

Mar. 21, 2013 Rise Set
Actual Time 8:56 AM AKDT 9:22 PM AKDT
Civil Twilight 8:08 AM AKDT 10:11 PM AKDT
Nautical Twilight 7:08 AM AKDT 11:11 PM AKDT
Astronomical Twilight 5:59 AM AKDT 12:21 AM AKDT
Moon 2:19 PM AKDT (3/21) 7:15 AM AKDT (3/21)
Length of Visible Light 14h 02m
Length of Day
12h 25m
Waxing Gibbous, 70% of the Moon is Illuminated
Mar 21
Waxing Gibbous
Mar 27
Full
Apr 2
Last Quarter
Apr 10
New
Apr 18
First Quarter

Hourly Weather History & Observations

Time (AKDT) Temp. Windchill Dew Point Humidity Pressure Visibility Wind Dir Wind Speed Gust Speed Precip Events Conditions
12:53 AM -2.9 °F -13.3 °F -9.0 °F 75% 30.06 in 10.0 mi NNE 4.6 mph - N/A   Clear
1:53 AM -4.0 °F - -9.9 °F 76% 30.06 in 10.0 mi Calm Calm - N/A   Clear
2:53 AM -5.1 °F - -8.0 °F 87% 30.06 in 10.0 mi Calm Calm - N/A   Clear
3:53 AM -8.0 °F - -13.0 °F 79% 30.06 in 10.0 mi Calm Calm - N/A   Clear
4:53 AM -11.9 °F - -16.1 °F 82% 30.06 in 10.0 mi Calm Calm - N/A   Clear
5:53 AM -11.0 °F - -15.0 °F 83% 30.06 in 10.0 mi Calm Calm - N/A   Clear
6:53 AM -11.0 °F - -14.1 °F 86% 30.06 in 10.0 mi Calm Calm - N/A   Partly Cloudy
7:53 AM -11.0 °F - -16.1 °F 78% 30.05 in 10.0 mi Calm Calm - N/A   Partly Cloudy
8:08 AM -9.4 °F - -14.8 °F 77% 30.04 in 10.0 mi Calm Calm - N/A   Mostly Cloudy
8:42 AM -9.4 °F - -14.8 °F 77% 30.04 in 10.0 mi Calm Calm - N/A   Mostly Cloudy
8:53 AM -9.0 °F - -13.0 °F 83% 30.04 in 10.0 mi Calm Calm - N/A   Mostly Cloudy
9:48 AM -7.6 °F - -11.2 °F 84% 30.04 in 10.0 mi Calm Calm - N/A   Mostly Cloudy
9:53 AM -7.1 °F - -11.9 °F 79% 30.04 in 10.0 mi Calm Calm - N/A   Overcast
10:53 AM -2.0 °F - -6.0 °F 83% 30.03 in 10.0 mi Calm Calm - N/A   Mostly Cloudy
11:53 AM 1.9 °F -11.8 °F -5.1 °F 72% 30.04 in 10.0 mi NE 8.1 mph - N/A   Mostly Cloudy
12:53 PM 3.0 °F -12.5 °F -5.1 °F 69% 30.06 in 10.0 mi NNE 10.4 mph - N/A   Overcast
1:53 PM 3.9 °F -8.2 °F -4.0 °F 70% 30.06 in 10.0 mi North 6.9 mph - N/A   Overcast
2:36 PM 3.2 °F -12.2 °F -5.8 °F 66% 30.06 in 10.0 mi North 10.4 mph - N/A   Scattered Clouds
2:53 PM 3.0 °F -13.3 °F -6.0 °F 66% 30.07 in 10.0 mi North 11.5 mph - N/A   Scattered Clouds
3:53 PM 3.0 °F -12.5 °F -6.0 °F 66% 30.06 in 10.0 mi North 10.4 mph - N/A   Overcast
4:53 PM 3.9 °F -11.3 °F -5.1 °F 66% 30.06 in 10.0 mi North 10.4 mph - N/A   Mostly Cloudy
5:53 PM 3.9 °F -11.3 °F -6.0 °F 64% 30.06 in 10.0 mi NNE 10.4 mph - N/A   Mostly Cloudy
6:53 PM 1.9 °F -10.6 °F -8.0 °F 63% 30.05 in 10.0 mi North 6.9 mph - N/A   Scattered Clouds
7:53 PM -0.0 °F -13.0 °F -9.0 °F 66% 30.04 in 10.0 mi NNE 6.9 mph - N/A   Partly Cloudy
8:53 PM -2.9 °F - -11.0 °F 68% 30.04 in 10.0 mi Calm Calm - N/A   Scattered Clouds
9:53 PM -6.0 °F -14.7 °F -14.1 °F 68% 30.05 in 10.0 mi North 3.5 mph - N/A   Scattered Clouds
10:53 PM -9.0 °F -20.4 °F -16.1 °F 71% 30.06 in 10.0 mi NNE 4.6 mph - N/A   Scattered Clouds
11:53 PM -9.9 °F -23.4 °F -17.0 °F 71% 30.06 in 10.0 mi North 5.8 mph - N/A   Scattered Clouds